When you browse on this site, cookies collect data to enhance your experience and personalize the content and advertising you see.
Visit our Privacy Policy to learn more. By continuing to use the site, you agree to this use of cookies and data.
  • Em Portugal
  • Lista de países
  • Para 7 dias
  • Temperatura da água
  • Mapa do tempo
  • Widgets de tempo
  • user-avatar
    Iniciar Sessão

    Previsão horária em Janowicze

    Hoje, 29 Maio, Sexta-feira

    Tempo Temperatura Precipitação Vento Pressão Humidade
    00:00 +11°C° 0 mm 4 m/s 753 mmHg 85%
    01:00 +9°C° 0 mm 5 m/s 753 mmHg 83%
    02:00 +8°C° 0 mm 5 m/s 753 mmHg 79%
    03:00 +7°C° 0 mm 5 m/s 753 mmHg 80%
    04:00 +7°C° 0 mm 5 m/s 753 mmHg 81%
    05:00 +6°C° 0 mm 5 m/s 753 mmHg 83%
    06:00 +7°C° 0 mm 5 m/s 753 mmHg 80%
    07:00 +8°C° 0 mm 5 m/s 753 mmHg 77%
    08:00 +10°C° 0 mm 6 m/s 753 mmHg 75%
    09:00 +11°C° 0 mm 6 m/s 753 mmHg 71%
    10:00 +13°C° 0 mm 6 m/s 753 mmHg 67%
    11:00 +15°C° 0 mm 7 m/s 753 mmHg 63%
    12:00 +15°C° 0.1 mm 7 m/s 752 mmHg 61%
    13:00 +16°C° 0.1 mm 7 m/s 752 mmHg 59%
    14:00 +16°C° 0.1 mm 7 m/s 752 mmHg 57%
    15:00 +16°C° 0.1 mm 7 m/s 752 mmHg 59%
    16:00 +16°C° 0.1 mm 6 m/s 751 mmHg 61%
    17:00 +15°C° 0.1 mm 6 m/s 751 mmHg 64%
    18:00 +14°C° 0 mm 6 m/s 751 mmHg 67%
    19:00 +13°C° 0 mm 5 m/s 751 mmHg 71%
    20:00 +12°C° 0 mm 5 m/s 751 mmHg 75%
    21:00 +10°C° 0 mm 5 m/s 751 mmHg 77%
    22:00 +10°C° 0 mm 5 m/s 751 mmHg 79%
    23:00 +9°C° 0 mm 5 m/s 751 mmHg 82%

    Amanhã, 30 Maio, Sábado

    Tempo Temperatura Precipitação Vento Pressão Humidade
    00:00 +8°C° 0 mm 5 m/s 750 mmHg 82%
    01:00 +8°C° 0 mm 5 m/s 750 mmHg 82%
    02:00 +7°C° 0 mm 5 m/s 750 mmHg 82%
    03:00 +7°C° 0.5 mm 5 m/s 750 mmHg 85%
    04:00 +7°C° 0.5 mm 5 m/s 750 mmHg 88%
    05:00 +7°C° 0.5 mm 6 m/s 749 mmHg 91%
    06:00 +7°C° 0.1 mm 6 m/s 749 mmHg 89%
    07:00 +7°C° 0.1 mm 6 m/s 749 mmHg 87%
    08:00 +8°C° 0.1 mm 6 m/s 749 mmHg 86%
    09:00 +9°C° 0 mm 7 m/s 748 mmHg 79%
    10:00 +11°C° 0 mm 7 m/s 748 mmHg 73%
    11:00 +12°C° 0 mm 7 m/s 748 mmHg 67%
    12:00 +14°C° 0.3 mm 7 m/s 748 mmHg 69%
    13:00 +14°C° 0.3 mm 7 m/s 747 mmHg 71%
    14:00 +14°C° 0.3 mm 7 m/s 747 mmHg 72%
    15:00 +14°C° 1.4 mm 7 m/s 747 mmHg 77%
    16:00 +13°C° 1.4 mm 6 m/s 746 mmHg 82%
    17:00 +13°C° 1.4 mm 6 m/s 746 mmHg 87%
    18:00 +13°C° 0.3 mm 6 m/s 745 mmHg 85%
    19:00 +12°C° 0.3 mm 7 m/s 745 mmHg 84%
    20:00 +12°C° 0.3 mm 7 m/s 745 mmHg 82%
    21:00 +11°C° 1.8 mm 8 m/s 744 mmHg 86%
    22:00 +11°C° 1.8 mm 8 m/s 744 mmHg 89%
    23:00 +10°C° 1.8 mm 9 m/s 744 mmHg 93%

    Depois de amanhã, 31 Maio, Domingo

    Tempo Temperatura Precipitação Vento Pressão Humidade
    00:00 +10°C° 0.6 mm 9 m/s 743 mmHg 91%
    01:00 +11°C° 0.6 mm 8 m/s 743 mmHg 89%
    02:00 +11°C° 0.6 mm 8 m/s 742 mmHg 87%
    03:00 +12°C° 0 mm 8 m/s 742 mmHg 83%
    04:00 +12°C° 0 mm 8 m/s 742 mmHg 80%
    05:00 +12°C° 0 mm 8 m/s 742 mmHg 77%
    06:00 +12°C° 0 mm 8 m/s 743 mmHg 76%
    07:00 +13°C° 0 mm 9 m/s 743 mmHg 75%
    08:00 +13°C° 0 mm 9 m/s 744 mmHg 75%
    09:00 +13°C° 0 mm 9 m/s 745 mmHg 74%
    10:00 +15°C° 0 mm 9 m/s 745 mmHg 74%
    11:00 +15°C° 0 mm 8 m/s 746 mmHg 73%
    12:00 +16°C° 0 mm 8 m/s 746 mmHg 72%
    13:00 +16°C° 0 mm 8 m/s 747 mmHg 72%
    14:00 +16°C° 0 mm 7 m/s 747 mmHg 71%
    15:00 +16°C° 0 mm 7 m/s 747 mmHg 72%
    16:00 +16°C° 0 mm 6 m/s 748 mmHg 72%
    17:00 +17°C° 0 mm 6 m/s 748 mmHg 72%
    18:00 +16°C° 0 mm 5 m/s 748 mmHg 72%
    19:00 +15°C° 0 mm 5 m/s 748 mmHg 73%
    20:00 +15°C° 0 mm 5 m/s 749 mmHg 74%
    21:00 +14°C° 0 mm 5 m/s 749 mmHg 73%
    22:00 +13°C° 0 mm 5 m/s 750 mmHg 72%
    23:00 +13°C° 0 mm 5 m/s 750 mmHg 71%

    1 Junho, Segunda-feira

    Tempo Temperatura Precipitação Vento Pressão Humidade
    00:00 +12°C° 0 mm 5 m/s 751 mmHg 73%
    01:00 +12°C° 0 mm 5 m/s 751 mmHg 74%
    02:00 +10°C° 0 mm 5 m/s 751 mmHg 76%
    03:00 +10°C° 0 mm 5 m/s 752 mmHg 77%
    04:00 +9°C° 0 mm 5 m/s 752 mmHg 78%
    05:00 +8°C° 0 mm 5 m/s 752 mmHg 78%
    06:00 +9°C° 0 mm 5 m/s 752 mmHg 75%
    07:00 +10°C° 0 mm 5 m/s 753 mmHg 73%
    08:00 +13°C° 0 mm 5 m/s 753 mmHg 70%
    09:00 +14°C° 0 mm 5 m/s 753 mmHg 66%
    10:00 +15°C° 0 mm 5 m/s 753 mmHg 62%
    11:00 +16°C° 0 mm 5 m/s 754 mmHg 59%
    12:00 +16°C° 0 mm 6 m/s 754 mmHg 56%
    13:00 +17°C° 0 mm 6 m/s 753 mmHg 53%
    14:00 +17°C° 0 mm 6 m/s 753 mmHg 51%
    15:00 +17°C° 0 mm 5 m/s 753 mmHg 53%
    16:00 +17°C° 0 mm 5 m/s 753 mmHg 55%
    17:00 +16°C° 0 mm 5 m/s 753 mmHg 57%
    18:00 +15°C° 0 mm 4 m/s 753 mmHg 63%
    19:00 +14°C° 0 mm 3 m/s 753 mmHg 69%
    20:00 +13°C° 0 mm 3 m/s 753 mmHg 75%
    21:00 +13°C° 0 mm 2 m/s 753 mmHg 78%
    22:00 +12°C° 0 mm 2 m/s 753 mmHg 82%
    23:00 +10°C° 0 mm 2 m/s 753 mmHg 86%

    2 Junho, Terça-feira

    Tempo Temperatura Precipitação Vento Pressão Humidade
    00:00 +9°C° 0 mm 2 m/s 753 mmHg 87%
    01:00 +9°C° 0 mm 2 m/s 753 mmHg 88%
    02:00 +8°C° 0 mm 2 m/s 753 mmHg 89%
    03:00 +8°C° 0 mm 2 m/s 753 mmHg 89%
    04:00 +8°C° 0 mm 2 m/s 753 mmHg 89%
    05:00 +8°C° 0 mm 2 m/s 753 mmHg 90%
    06:00 +10°C° 0 mm 2 m/s 752 mmHg 85%
    07:00 +13°C° 0 mm 2 m/s 752 mmHg 81%
    08:00 +14°C° 0 mm 3 m/s 752 mmHg 76%
    09:00 +14°C° 0.3 mm 3 m/s 752 mmHg 74%
    10:00 +16°C° 0.3 mm 3 m/s 752 mmHg 73%
    11:00 +16°C° 0.3 mm 3 m/s 752 mmHg 71%
    12:00 +17°C° 0.2 mm 3 m/s 752 mmHg 67%
    13:00 +17°C° 0.2 mm 3 m/s 751 mmHg 63%
    14:00 +18°C° 0.2 mm 3 m/s 751 mmHg 59%
    15:00 +18°C° 0.1 mm 2 m/s 751 mmHg 61%
    16:00 +18°C° 0.1 mm 2 m/s 751 mmHg 63%
    17:00 +18°C° 0.1 mm 2 m/s 750 mmHg 66%
    18:00 +16°C° 0.1 mm 2 m/s 750 mmHg 71%
    19:00 +15°C° 0.1 mm 2 m/s 750 mmHg 76%
    20:00 +14°C° 0.1 mm 1 m/s 750 mmHg 81%
    21:00 +13°C° 0 mm 1 m/s 750 mmHg 82%
    22:00 +12°C° 0 mm 1 m/s 750 mmHg 82%
    23:00 +11°C° 0 mm 1 m/s 751 mmHg 83%

    3 Junho, Quarta-feira

    Tempo Temperatura Precipitação Vento Pressão Humidade
    00:00 +10°C° 0 mm 1 m/s 750 mmHg 84%
    01:00 +10°C° 0 mm 1 m/s 750 mmHg 84%
    02:00 +9°C° 0 mm 1 m/s 750 mmHg 85%
    03:00 +8°C° 0 mm 0 m/s 750 mmHg 85%
    04:00 +8°C° 0 mm 0 m/s 750 mmHg 84%
    05:00 +8°C° 0 mm 0 m/s 750 mmHg 84%
    06:00 +10°C° 0 mm 0 m/s 750 mmHg 79%
    07:00 +12°C° 0 mm 0 m/s 750 mmHg 73%
    08:00 +14°C° 0 mm 0 m/s 750 mmHg 67%
    09:00 +15°C° 0 mm 0 m/s 750 mmHg 61%
    10:00 +19°C° 0 mm 1 m/s 750 mmHg 55%
    11:00 +20°C° 0 mm 1 m/s 749 mmHg 49%
    12:00 +20°C° 0 mm 1 m/s 749 mmHg 49%
    13:00 +20°C° 0 mm 1 m/s 749 mmHg 49%
    14:00 +20°C° 0 mm 1 m/s 749 mmHg 50%
    15:00 +20°C° 0 mm 1 m/s 748 mmHg 52%
    16:00 +20°C° 0 mm 1 m/s 748 mmHg 53%
    17:00 +19°C° 0 mm 2 m/s 748 mmHg 55%
    18:00 +18°C° 0 mm 2 m/s 747 mmHg 62%
    19:00 +16°C° 0 mm 2 m/s 747 mmHg 68%
    20:00 +15°C° 0 mm 2 m/s 747 mmHg 75%
    21:00 +14°C° 0 mm 2 m/s 747 mmHg 75%
    22:00 +13°C° 0 mm 2 m/s 747 mmHg 75%
    23:00 +12°C° 0 mm 2 m/s 747 mmHg 76%
    Mostrar mais